User: anonymous   Login
Location: Unspecified
(0.0000°N, 0.0000°E)
Time: 06:50:04
(UTC+00:00)
Language:

Oscar 11 - Orbit

View from above orbital plane
View from above orbital plane
View from above satellite
View from above satellite

Ground track
Ground track

The orbit data is extracted from the following two-line orbital elements,

1 14781U 84021B   18267.92548676 +.00000081 +00000-0 +16102-4 0  9990
2 14781 097.6412 299.8422 0009915 112.3575 247.8691 14.83031777838227
Epoch (UTC): 24 September 2018 22:12:42
Eccentricity: 0.0009915
inclination: 97.6412°
perigee height: 613 km
apogee height: 627 km
right ascension of ascending node: 299.8422°
argument of perigee: 112.3575°
revolutions per day: 14.83031777
mean anomaly at epoch: 247.8691°
orbit number at epoch: 83822

The dashed part of the orbit path shows where the satellite is in the earth's shadow,  

DLR